Regional Weather Roundup
Issued by NWS

Home | Current Version | Previous Version | Text Only | Print | Product List | Glossary Off
Versions: 1 2 3 4 5 6 7 8 9 10 11 12 13 14 15 16 17 18 19 20 21 22 23 24 25 26 27 28 29 30 31 32 33 34 35 36 37 38 39 40 41 42 43 44 45 46 47 48 49 50

000
ASUS43 KMKX 300611
RWRWI

WISCONSIN REGIONAL WEATHER ROUNDUP
NATIONAL WEATHER SERVICE MILWAUKEE/SULLIVAN WI
100 AM CDT FRI SEP 30 2016

NOTE: "FAIR" INDICATES FEW OR NO CLOUDS BELOW 12,000 FEET WITH NO
SIGNIFICANT WEATHER AND/OR OBSTRUCTIONS TO VISIBILITY.

WIZ001-002-006>008-014>016-023>028-300700-
NORTHWEST WISCONSIN

CITY           SKY/WX    TMP DP  RH WIND       PRES   REMARKS
SUPERIOR ARPT  CLOUDY    52  51  96 E6        30.46S
6HR MIN TEMP:  51; 6HR MAX TEMP:  54;

ASHLAND        CLOUDY    53  52  96 CALM      30.46S
6HR MIN TEMP:  50; 6HR MAX TEMP:  54;

HAYWARD        CLOUDY    53  50  89 NE5       30.44S
6HR MIN TEMP:  48; 6HR MAX TEMP:  55;

SIREN          CLOUDY    52  51  95 E5        30.42F FOG
6HR MIN TEMP:  51; 6HR MAX TEMP:  60;

CUMBERLAND     CLEAR     48  46  93 NE5       30.41F
RICE LAKE      CLEAR     49  47  95 CALM      30.42F FOG
6HR MIN TEMP:  49; 6HR MAX TEMP:  61;

CHETEK         NOT AVBL
LADYSMITH      CLEAR     51  49  95 NE3       30.42F
6HR MIN TEMP:  51; 6HR MAX TEMP:  61;

EAU CLAIRE     CLEAR     53  52  96 NE5       30.38F
6HR MIN TEMP:  53; 6HR MAX TEMP:  63;

MENOMONIE      CLEAR     55  52  90 N5        30.39F
6HR MIN TEMP:  55; 6HR MAX TEMP:  66;

NEW RICHMOND   CLEAR     52  51  99 CALM      30.40S
6HR MIN TEMP:  51; 6HR MAX TEMP:  59;

OSCEOLA        CLEAR     52  52 100 CALM      30.42F
6HR MIN TEMP:  50; 6HR MAX TEMP:  60;

$$

WIZ003>005-009-010-017-018-300700-
NORTH CENTRAL WISCONSIN

CITY           SKY/WX    TMP DP  RH WIND       PRES   REMARKS
MANITOWISH WTR NOT AVBL
ARBOR VITAE    CLEAR     52  50  95 CALM      30.42F
6HR MIN TEMP:  52; 6HR MAX TEMP:  57;

WOODRUFF       CLEAR     52  50  95 CALM      30.42F
6HR MIN TEMP:  52; 6HR MAX TEMP:  57;

RHINELANDER    CLEAR     48  48 100 N3        30.41F
6HR MIN TEMP:  48; 6HR MAX TEMP:  60;

EAGLE RIVER    MOCLDY    45  45 100 CALM      30.41F FOG
6HR MIN TEMP:  43; 6HR MAX TEMP:  56;

LAND O LAKES   FOG       48  48 100 NE5       30.44F VSB 1
6HR MIN TEMP:  48; 6HR MAX TEMP:  56;

PHILLIPS       CLOUDY    47  47 100 NE3       30.41F FOG
6HR MIN TEMP:  47; 6HR MAX TEMP:  59;

TOMAHAWK       FOG       46  45  97 CALM      30.41F VSB 1/4
6HR MIN TEMP:  44; 6HR MAX TEMP:  59;

MEDFORD        CLEAR    N/A N/A N/A NE6       30.39F
MERRILL        CLEAR     50  50  99 CALM      30.39F
6HR MIN TEMP:  50; 6HR MAX TEMP:  61;

$$

WIZ029-030-035-036-043>047-300700-
CENTRAL WISCONSIN

CITY           SKY/WX    TMP DP  RH WIND       PRES   REMARKS
WAUSAU         CLEAR     53  48  83 NE6       30.36F
6HR MIN TEMP:  53; 6HR MAX TEMP:  64;

MOSINEE        CLEAR     52  48  87 N9        30.38F
MARSHFIELD     CLEAR     55  49  80 NE10      30.36F
6HR MIN TEMP:  55; 6HR MAX TEMP:  65;

STEVENS POINT  CLEAR     51  49  90 N7        30.36S
6HR MIN TEMP:  51; 6HR MAX TEMP:  60;

WAUPACA        CLEAR     57  53  88 N5        30.35S
6HR MIN TEMP:  57; 6HR MAX TEMP:  65; 6HR PCP:  0.01;

WAUTOMA        MOCLDY    57  53  86 NE9       30.33S
6HR MIN TEMP:  57; 6HR MAX TEMP:  63;

WISC RAPIDS    CLEAR     55  51  86 NE8       30.36F
6HR MIN TEMP:  55; 6HR MAX TEMP:  63;

CAMP DOUGLAS   CLEAR     49  47  96 W5        30.34S
6HR MIN TEMP:  46; 6HR MAX TEMP:  61;

$$

WIZ011>013-019>022-031-037>040-048>050-300700-
NORTHEAST WISCONSIN

CITY           SKY/WX    TMP DP  RH WIND       PRES   REMARKS
ANTIGO         CLEAR     48  47  97 CALM      30.39F
6HR MIN TEMP:  48; 6HR MAX TEMP:  57;

SHAWANO        CLEAR     56  52  85 NE6       30.36S
6HR MIN TEMP:  56; 6HR MAX TEMP:  64;

OCONTO         NOT AVBL
STURGEON BAY   PTCLDY    59  56  89 N9        30.35F
6HR MIN TEMP:  58; 6HR MAX TEMP:  62;

GREEN BAY      CLOUDY    57  56  96 N10       30.33F
6HR MIN TEMP:  57; 6HR MAX TEMP:  63;

MANITOWOC      LGT RAIN  62  55  77 NE8       30.32S
6HR MIN TEMP:  62; 6HR MAX TEMP:  63;

APPLETON       CLOUDY    54  54 100 N13       30.31F
CLINTONVILLE   CLEAR     54  50  87 N7        30.35S
OSHKOSH        MOCLDY    60  54  80 NE14      30.30F
6HR MIN TEMP:  59; 6HR MAX TEMP:  64;

$$

WIZ032>034-041-042-053>061-300700-
SOUTHWEST WISCONSIN

CITY           SKY/WX    TMP DP  RH WIND       PRES   REMARKS
LA CROSSE      CLEAR     54  52  93 CALM      30.34F
6HR MIN TEMP:  53; 6HR MAX TEMP:  65;

SPARTA         CLEAR     45  45 100 CALM      30.35F
6HR MIN TEMP:  44; 6HR MAX TEMP:  63;

VIROQUA        CLEAR     54  49  84 NE6       30.32F
6HR MIN TEMP:  54; 6HR MAX TEMP:  61;

BOSCOBEL       CLEAR     56  49  77 E3        30.30F
6HR MIN TEMP:  50; 6HR MAX TEMP:  65;

PRAIRIE DU CHI CLEAR     55  50  83 CALM      30.30F
6HR MIN TEMP:  53; 6HR MAX TEMP:  65;

PLATTEVILLE    CLEAR     54  50  86 N7        30.28F
6HR MIN TEMP:  54; 6HR MAX TEMP:  64;

$$

WIZ056-057-062-063-064-067-068-300700-
SOUTH CENTRAL WISCONSIN

CITY           SKY/WX    TMP DP  RH WIND       PRES   REMARKS
REEDSBURG      NOT AVBL
BARABOO/DELLS  CLOUDY    56  50  79 NE9       30.31S
6HR MIN TEMP:  55; 6HR MAX TEMP:  62;

LONE ROCK      CLEAR     57  50  77 N9        30.30F
6HR MIN TEMP:  53; 6HR MAX TEMP:  64;

MINERAL POINT  CLEAR     55  50  82 N9        30.28S
MADISON        PTCLDY    56  53  90 N10       30.27F
6HR MIN TEMP:  56; 6HR MAX TEMP:  64;

MIDDLETON      PTCLDY    57  55  93 N7        30.28F
6HR MIN TEMP:  56; 6HR MAX TEMP:  65;

WATERTOWN      MOCLDY    57  56  96 NE8       30.26F
6HR MIN TEMP:  56; 6HR MAX TEMP:  63;

MONROE         CLEAR     55  54  94 N12G17    30.25S
JANESVILLE     CLOUDY    59  55  88 N6        30.23F
$$

WIZ051-052-058>065-066-070>072-300700-
SOUTHEAST WISCONSIN

CITY           SKY/WX    TMP DP  RH WIND       PRES   REMARKS
MILWAUKEE      CLOUDY    61  55  81 NE12      30.25F
6HR MIN TEMP:  61; 6HR MAX TEMP:  63; 6HR PCP: TRACE;

WAUKESHA       CLOUDY    57  52  82 NE10      30.27S
MILWAUKEE/TIMM CLOUDY    59  52  77 NE10G17   30.26F
RACINE         LGT RAIN  61  56  83 NE13      30.24F
6HR MIN TEMP:  59; 6HR MAX TEMP:  64; 6HR PCP:  0.04;

BURLINGTON     CLOUDY    59  53  82 NE8       30.23F
6HR MIN TEMP:  59; 6HR MAX TEMP:  61;

KENOSHA        CLOUDY    60  57  89 NE10G21   30.22F
6HR MIN TEMP:  60; 6HR MAX TEMP:  62; 6HR PCP:  0.01;

FOND DU LAC    CLOUDY    61  55  81 NE10      30.29F
6HR MIN TEMP:  59; 6HR MAX TEMP:  63;

SHEBOYGAN      LGT RAIN  61  54  77 NE15      30.28F
6HR MIN TEMP:  61; 6HR MAX TEMP:  62; 6HR PCP: TRACE;

WEST BEND      CLOUDY    66  63  88 NE9       30.27F
JUNEAU         CLOUDY    57  54  88 N8        30.29S
6HR MIN TEMP:  56; 6HR MAX TEMP:  61;

$$

LSZ147-162-300700-
LAKE SUPERIOR

STATION/POSITION TIME  TEMP    WIND        PRES    WAVE
                       AIR SEA DIR/SP/G            HT/PER
                 (UTC) (F)     (DEG/KT/KT) (MB)    (FT/S)
W MID LAKE BUOY  0550   55 56   50/  6/  6 1031.4F   2/ 5
DEVILS ISLAND    0600   53      70/  8/  9 1031.8F
SAXON HARBOR     0500   53      CALM  /  2 1030.8F
$$

LMZ867-665-643>646-300700-
LAKE MICHIGAN

STATION/POSITION TIME  TEMP    WIND        PRES    WAVE
                       AIR SEA DIR/SP/G            HT/PER
                 (UTC) (F)     (DEG/KT/KT) (MB)    (FT/S)
CHAMBERS ISLAND  0500   60     350/ 16/ 22 1027.4F
S GREEN BAY BUOY 0500   59 62   10/ 16/ 19 1027.0F
N MID LAKE BUOY  0550   65 65   70/ 16/ 19 1027.1F   3/ 5
NORTHPORT PIER   0500   61      10/ 12/ 16 1028.1S
SISTER BAY       0508   59      40/  C1F1C2F2C3F3C4F4C5F5C6F6C7F7C8M1C9M2Ca!


USA.gov is the U.S. government's official web portal to all federal, state and local government web resources and services.